sat.trackr.live / text

‹ back to catalog

STARLINK-3732

NORAD 52126 · 2022-029AQ

PAYLOAD ACTIVE UNKNOWN

§ Identity

Operator
Country
US
Launch date
2022-03-19
Launch site
AFETR
Launch vehicle
Mass (kg)
RCS (m²)

Purposes: comms

External: N2YO · Heavens-Above · Gunter

§ Orbital elements

Epoch: 2026-09-19T13:49:21.666144Z

Period
93.79 min
Inclination
53.1602°
Eccentricity
0.0001270
Mean motion
15.35403635 rev/d
Perigee alt
458.9 km
Apogee alt
460.6 km
Semi-major
6,837.9 km
B*
2.2463e-5
RAAN
273.8074°
Arg perigee
81.5219°
Mean anomaly
278.5928°
Rev number
25,025

§ Raw data

STARLINK-37321 52126U 22029AQ  26262.57594521  .00000403  00000+0  22463-4 0  99942 52126  53.1602 273.8074 0001270  81.5219 278.5928 15.35403635250252

JSON: /api/v1/satellites/52126 · /tle

For live sub-satellite position, see the globe view (requires WebGL).

§ Visibility from observer

Set your observer location to see the next 7 days of passes ≥ 10°. The values pass through the URL so the page stays shareable.

No JS? Fill the form by hand. The geolocation button needs JavaScript.